Location: Days
(41.3591°N, 106.7339°W)
Time: 20:04:24
(UTC+00:00)

LO-87 - Visible Passes

Search period start: 26 June 2022 00:00
Search period end: 06 July 2022 00:00
Orbit: 454 x 468 km, 97.4° (Epoch: 26 June)

Date Brightness Start Highest point End Pass type
(mag) Time Alt. Az. Time Alt. Az. Time Alt. Az.
26 Jun ? 05:45:01 15° ENE 05:45:01 15° ENE 05:46:53 10° NNE visible
26 Jun ? 07:18:54 22° WNW 07:18:54 22° WNW 07:20:35 10° NW visible
27 Jun ? 06:47:04 40° NNW 06:47:04 40° NNW 06:49:24 10° NNW visible
28 Jun ? 06:15:13 31° NE 06:15:13 31° NE 06:17:39 10° N visible
28 Jun ? 07:49:05 10° WNW 07:49:05 10° WNW 07:49:07 10° WNW visible
29 Jun ? 05:43:21 15° ENE 05:43:21 15° ENE 05:45:07 10° NNE visible
29 Jun ? 07:17:13 22° NW 07:17:13 22° NW 07:18:57 10° NNW visible
30 Jun ? 06:45:20 40° NNW 06:45:20 40° NNW 06:47:40 10° NNW visible
01 Jul ? 06:13:26 29° NE 06:13:26 29° NE 06:15:50 10° N visible
01 Jul ? 07:47:19 11° WNW 07:47:19 11° WNW 07:47:31 10° WNW visible
02 Jul ? 05:41:31 14° ENE 05:41:31 14° ENE 05:43:10 10° NE visible
02 Jul ? 07:15:24 23° NW 07:15:24 23° NW 07:17:09 10° NNW visible
03 Jul ? 06:43:27 40° N 06:43:27 40° N 06:45:46 10° N visible
04 Jul ? 06:11:30 27° NE 06:11:30 27° NE 06:13:50 10° N visible
04 Jul ? 07:45:22 11° WNW 07:45:22 11° WNW 07:45:43 10° WNW visible
05 Jul ? 05:39:32 13° ENE 05:39:32 13° ENE 05:41:00 10° NE visible
05 Jul ? 07:13:24 24° NW 07:13:24 24° NW 07:15:10 10° NNW visible
